Weather History for Kleine Brogel, Belgium

Change the Weather History Date:

Friday, October 19, 2012

  Actual Average Record
Temperature  
Mean Temperature 64 °F -  
Max Temperature 73 °F 49 °F 73 °F (2012)
Min Temperature 56 °F 40 °F 26 °F (2003)
Growing Degree Days 14 (Base 50)    
Moisture  
Dew Point 52 °F    
Average Humidity 67    
Maximum Humidity 88    
Minimum Humidity 36    
Precipitation  
Precipitation 0.00 in - - ()
Sea Level Pressure  
Sea Level Pressure 29.84 in    
Wind  
Wind Speed 4 mph ()    
Max Wind Speed 12 mph    
Max Gust Speed -    
Visibility 6.6 miles    
Events      
Averages and records for this station are not official NWS values.
T = Trace of Precipitation, MM = Missing Value Source: Averaged Metar Reports

Daily Weather History Graph

Daily Weather History Graph

Search for Another Location

Airport:

Trip Planner

Search our weather history database for the weather conditions in past years. The results will help you decide how hot, cold, wet, or windy it might be!

Date:

Astronomy

Oct. 19, 2012 Rise Set
Actual Time 8:08 AM CEST 6:36 PM CEST
Civil Twilight 7:35 AM CEST 7:10 PM CEST
Nautical Twilight 6:56 AM CEST 7:48 PM CEST
Astronomical Twilight 6:18 AM CEST 8:26 PM CEST
Moon 1:01 PM CEST (10/19) 9:33 PM CEST (10/19)
Length of Visible Light 11h 34m
Length of Day
10h 27m
Waxing Crescent, 21% of the Moon is Illuminated
Oct 19
Waxing Crescent
Oct 22
First Quarter
Oct 29
Full
Nov 7
Last Quarter
Nov 13
New

Hourly Weather History & Observations

Time (CEST) Temp. Dew Point Humidity Pressure Visibility Wind Dir Wind Speed Gust Speed Precip Events Conditions
12:25 AM 59.0 °F 53.6 °F 82% 29.80 in 6.2 mi Variable 2.3 mph - N/A   Mostly Cloudy
12:55 AM 59.0 °F 53.6 °F 82% 29.80 in 6.2 mi Variable 3.5 mph - N/A   Mostly Cloudy
1:25 AM 59.0 °F 53.6 °F 82% 29.80 in 6.2 mi Variable 2.3 mph - N/A   Mostly Cloudy
2:00 AM 58 °F 52 °F 76% 29.82 in 28 mi 2.2 mph - -   Partly Cloudy
2:25 AM 59.0 °F 51.8 °F 77% 29.80 in 6.2 mi Variable 2.3 mph - N/A   Mostly Cloudy
2:55 AM 57.2 °F 53.6 °F 88% 29.80 in 6.2 mi Variable 2.3 mph - N/A   Mostly Cloudy
3:25 AM 55.4 °F 51.8 °F 88% 29.80 in 6.2 mi Variable 2.3 mph - N/A   Mostly Cloudy
3:55 AM 57.2 °F 51.8 °F 82% 29.80 in 6.2 mi Variable 3.5 mph - N/A   Mostly Cloudy
4:25 AM 59.0 °F 51.8 °F 77% 29.80 in 6.2 mi Variable 3.5 mph - N/A   Scattered Clouds
4:55 AM 59.0 °F 50.0 °F 72% 29.80 in 6.2 mi Variable 3.5 mph - N/A   Scattered Clouds
5:00 AM 59 °F 51 °F 67% 29.82 in 28 mi 2.2 mph - -   Scattered Clouds
5:25 AM 57.2 °F 51.8 °F 82% 29.80 in 6.2 mi Variable 3.5 mph - N/A   Scattered Clouds
5:55 AM 57.2 °F 51.8 °F 82% 29.80 in 6.2 mi Variable 3.5 mph - N/A   Mostly Cloudy
6:25 AM 57.2 °F 50.0 °F 77% 29.80 in 6.2 mi Variable 3.5 mph - N/A   Scattered Clouds
6:55 AM 57.2 °F 50.0 °F 77% 29.80 in 6.2 mi Variable 3.5 mph - N/A   Scattered Clouds
7:25 AM 57.2 °F 50.0 °F 77% 29.80 in 6.2 mi Variable 2.3 mph - N/A   Scattered Clouds
7:55 AM 57.2 °F 50.0 °F 77% 29.80 in 6.2 mi Variable 3.5 mph - N/A   Scattered Clouds
8:00 AM 58 °F 50 °F 66% 29.82 in 28 mi 4.5 mph - -   Partly Cloudy
8:25 AM 59.0 °F 50.0 °F 72% 29.80 in 6.2 mi South 4.6 mph - N/A   Scattered Clouds
8:55 AM 59.0 °F 50.0 °F 72% 29.83 in 6.2 mi Variable 3.5 mph - N/A   Partly Cloudy
9:25 AM 59.0 °F 50.0 °F 72% 29.83 in 6.2 mi Variable 3.5 mph - N/A   Scattered Clouds
9:55 AM 62.6 °F 51.8 °F 68% 29.83 in 6.2 mi South 4.6 mph - N/A   Scattered Clouds
10:25 AM 62.6 °F 51.8 °F 68% 29.83 in 6.2 mi South 5.8 mph - N/A   Scattered Clouds
10:55 AM 66.2 °F 51.8 °F 60% 29.83 in 6.2 mi South 5.8 mph - N/A   Scattered Clouds
11:00 AM 66 °F 52 °F 50% 29.85 in 22 mi South 4.5 mph - -   Scattered Clouds
11:25 AM 68.0 °F 51.8 °F 56% 29.83 in 6.2 mi South 5.8 mph - N/A   Scattered Clouds
11:55 AM 68.0 °F 51.8 °F 56% 29.83 in 6.2 mi South 6.9 mph - N/A   Mostly Cloudy
12:25 PM 69.8 °F 50.0 °F 49% 29.83 in 6.2 mi South 6.9 mph - N/A   Mostly Cloudy
12:55 PM 71.6 °F 51.8 °F 50% 29.83 in 6.2 mi South 6.9 mph - N/A   Mostly Cloudy
1:25 PM 73.4 °F 51.8 °F 47% 29.83 in 6.2 mi South 6.9 mph - N/A   Mostly Cloudy
1:55 PM 73.4 °F 51.8 °F 47% 29.83 in 6.2 mi SSW 8.1 mph - N/A   Mostly Cloudy
2:00 PM 73 °F 52 °F 36% 29.85 in 22 mi South 8.9 mph - -   Clear
2:25 PM 73.4 °F 51.8 °F 47% 29.83 in 6.2 mi SSW 8.1 mph - N/A   Mostly Cloudy
2:55 PM 71.6 °F 51.8 °F 50% 29.83 in 6.2 mi SSW 8.1 mph - N/A   Mostly Cloudy
3:25 PM 71.6 °F 53.6 °F 53% 29.86 in 6.2 mi SSW 8.1 mph - N/A   Mostly Cloudy
3:55 PM 71.6 °F 53.6 °F 53% 29.86 in 6.2 mi SSW 11.5 mph - N/A   Mostly Cloudy
4:01 PM 71.6 °F 51.8 °F 50% 29.86 in 6.2 mi SSW 11.5 mph - N/A   Mostly Cloudy
4:25 PM 69.8 °F 51.8 °F 53% 29.86 in 6.2 mi SSW 8.1 mph - N/A   Mostly Cloudy
4:55 PM 68.0 °F 53.6 °F 60% 29.86 in 6.2 mi SSW 6.9 mph - N/A   Mostly Cloudy
5:00 PM 69 °F 54 °F 48% 29.86 in 25 mi SSW 6.7 mph - -   Mostly Cloudy
5:25 PM 68.0 °F 53.6 °F 60% 29.86 in 6.2 mi SSW 6.9 mph - N/A   Mostly Cloudy
6:25 PM 66.2 °F 53.6 °F 64% 29.86 in 6.2 mi Variable 3.5 mph - N/A   Scattered Clouds
6:55 PM 62.6 °F 53.6 °F 72% 29.86 in 6.2 mi Variable 2.3 mph - N/A   Mostly Cloudy
7:25 PM 64.4 °F 53.6 °F 68% 29.89 in 6.2 mi Variable 3.5 mph - N/A   Mostly Cloudy
7:55 PM 64.4 °F 53.6 °F 68% 29.89 in 6.2 mi Variable 3.5 mph - N/A   Mostly Cloudy
8:00 PM 64 °F 54 °F 61% 29.89 in 19 mi 2.2 mph - -   Mostly Cloudy
8:25 PM 64.4 °F 53.6 °F 68% 29.89 in 6.2 mi Variable 3.5 mph - N/A   Mostly Cloudy
8:55 PM 62.6 °F 53.6 °F 72% 29.89 in 6.2 mi SSW 4.6 mph - N/A   Mostly Cloudy
9:25 PM 62.6 °F 53.6 °F 72% 29.89 in 6.2 mi Variable 2.3 mph - N/A   Mostly Cloudy
9:55 PM 60.8 °F 53.6 °F 77% 29.89 in 6.2 mi Variable 3.5 mph - N/A   Mostly Cloudy
10:25 PM 60.8 °F 53.6 °F 77% 29.89 in 6.2 mi Variable 2.3 mph - N/A   Mostly Cloudy
10:55 PM 62.6 °F 53.6 °F 72% 29.89 in 6.2 mi Variable 2.3 mph - N/A   Mostly Cloudy
11:00 PM 63 °F 53 °F 62% 29.90 in 13 mi 2.2 mph - -   Mostly Cloudy
11:25 PM 62.6 °F 53.6 °F 72% 29.89 in 6.2 mi Variable 3.5 mph - N/A   Mostly Cloudy
11:55 PM 62.6 °F 53.6 °F 72% 29.89 in 6.2 mi Variable 2.3 mph - N/A   Mostly Cloudy